| time (UTC) | temp F | wind direction | speed MPH | gust MPH | rain 1hr in | rain 24hr in | rain mn in | humidity % | barometer mb |
| 20260507144512 | 62 | 254 | 0.0 | 6.0 | 0.02 | 0.24 | 0.06 | 92 | 1009.3 |
| 20260507143008 | 62 | 250 | 0.0 | 1.0 | 0.01 | 0.24 | 0.06 | 91 | 1009.7 |
| 20260507141505 | 63 | 254 | 0.0 | 4.0 | 0.02 | 0.24 | 0.06 | 91 | 1009.8 |
| 20260507140006 | 63 | 254 | 1.0 | 6.0 | 0.02 | 0.23 | 0.05 | 91 | 1009.8 |
| 20260507134503 | 63 | 265 | 2.0 | 7.0 | 0.02 | 0.23 | 0.05 | 91 | 1009.9 |
| 20260507133108 | 63 | 276 | 2.0 | 8.0 | 0.02 | 0.23 | 0.05 | 92 | 1010.1 |
| 20260507131603 | 63 | 271 | 3.0 | 7.0 | 0.02 | 0.22 | 0.04 | 92 | 1010.2 |
| 20260507130109 | 62 | 265 | 2.0 | 5.0 | 0.03 | 0.21 | 0.03 | 92 | 1010.5 |
| 20260507124556 | 62 | 323 | 1.0 | 5.0 | 0.04 | 0.21 | 0.03 | 92 | 1010.5 |
| 20260507123054 | 62 | 278 | 1.0 | 5.0 | 0.06 | 0.21 | 0.03 | 92 | 1010.5 |
| 20260507121603 | 62 | 275 | 2.0 | 6.0 | 0.04 | 0.20 | 0.02 | 92 | 1010.5 |
| 20260507120050 | 63 | 269 | 1.0 | 4.0 | 0.03 | 0.18 | 0.18 | 92 | 1010.7 |
| 20260507114601 | 63 | 233 | 3.0 | 6.0 | 0.02 | 0.17 | 0.17 | 91 | 1010.7 |
| 20260507113048 | 63 | 265 | 1.0 | 9.0 | 0.02 | 0.16 | 0.16 | 91 | 1010.7 |
| 20260507111545 | 63 | 248 | 4.0 | 11.0 | 0.02 | 0.16 | 0.16 | 90 | 1010.8 |
| 20260507110046 | 63 | 245 | 5.0 | 12.0 | 0.02 | 0.15 | 0.15 | 91 | 1010.8 |
| 20260507104545 | 63 | 277 | 3.0 | 12.0 | 0.02 | 0.15 | 0.15 | 90 | 1010.9 |
| 20260507103045 | 63 | 255 | 5.0 | 12.0 | 0.02 | 0.14 | 0.14 | 90 | 1010.9 |
| 20260507101544 | 63 | 290 | 4.0 | 10.0 | 0.02 | 0.13 | 0.13 | 90 | 1010.8 |
| 20260507100043 | 63 | 287 | 5.0 | 13.0 | 0.02 | 0.13 | 0.13 | 89 | 1010.8 |
| 20260507094544 | 63 | 303 | 5.0 | 18.0 | 0.02 | 0.13 | 0.13 | 88 | 1010.7 |
| 20260507093048 | 63 | 245 | 5.0 | 13.0 | 0.02 | 0.12 | 0.12 | 88 | 1010.9 |
| 20260507091546 | 63 | 312 | 3.0 | 9.0 | 0.02 | 0.12 | 0.12 | 88 | 1011.1 |
| 20260507090039 | 63 | 284 | 5.0 | 12.0 | 0.01 | 0.11 | 0.11 | 87 | 1011.3 |
| 20260507084536 | 63 | 285 | 3.0 | 8.0 | 0.00 | 0.10 | 0.10 | 85 | 1011.4 |
| 20260507083033 | 64 | 272 | 5.0 | 13.0 | 0.00 | 0.10 | 0.10 | 83 | 1011.5 |
| 20260507081540 | 64 | 236 | 5.0 | 12.0 | 0.00 | 0.10 | 0.10 | 82 | 1011.6 |
| 20260507080024 | 64 | 297 | 3.0 | 12.0 | 0.01 | 0.10 | 0.10 | 80 | 1011.9 |
| 20260507074543 | 63 | 271 | 6.0 | 13.0 | 0.02 | 0.10 | 0.10 | 83 | 1012.2 |
| 20260507073021 | 62 | 278 | 1.0 | 8.0 | 0.02 | 0.10 | 0.10 | 87 | 1012.0 |
| 20260507071520 | 62 | 260 | 1.0 | 8.0 | 0.02 | 0.10 | 0.10 | 88 | 1012.4 |
| 20260507070021 | 62 | 276 | 2.0 | 10.0 | 0.04 | 0.09 | 0.09 | 88 | 1012.5 |
| 20260507064518 | 62 | 283 | 1.0 | 4.0 | 0.03 | 0.09 | 0.09 | 88 | 1012.3 |
| 20260507063024 | 62 | 264 | 4.0 | 12.0 | 0.02 | 0.08 | 0.08 | 87 | 1012.6 |
| 20260507061517 | 63 | 263 | 3.0 | 8.0 | 0.03 | 0.08 | 0.08 | 85 | 1012.7 |
| 20260507060015 | 63 | 241 | 1.0 | 10.0 | 0.02 | 0.06 | 0.06 | 84 | 1012.9 |
| 20260507054515 | 63 | 276 | 4.0 | 14.0 | 0.02 | 0.06 | 0.06 | 84 | 1012.8 |
| 20260507053014 | 63 | 310 | 6.0 | 14.0 | 0.02 | 0.06 | 0.06 | 85 | 1012.6 |
| 20260507051513 | 63 | 309 | 6.0 | 14.0 | 0.02 | 0.05 | 0.05 | 85 | 1012.7 |
| 20260507050024 | 63 | 317 | 4.0 | 12.0 | 0.02 | 0.04 | 0.04 | 83 | 1012.6 |
| 20260507044512 | 63 | 290 | 6.0 | 13.0 | 0.02 | 0.03 | 0.03 | 82 | 1012.5 |
| 20260507043020 | 63 | 276 | 7.0 | 19.0 | 0.02 | 0.03 | 0.03 | 84 | 1012.6 |
| 20260507041510 | 62 | 264 | 5.0 | 14.0 | 0.01 | 0.02 | 0.02 | 86 | 1012.8 |
| 20260507040009 | 63 | 276 | 5.0 | 13.0 | 0.02 | 0.02 | 0.02 | 84 | 1012.8 |
| 20260507034508 | 63 | 246 | 5.0 | 11.0 | 0.01 | 0.02 | 0.02 | 83 | 1012.8 |
| 20260507033016 | 63 | 269 | 5.0 | 12.0 | 0.01 | 0.02 | 0.02 | 85 | 1013.1 |
| 20260507031506 | 63 | 273 | 5.0 | 13.0 | 0.01 | 0.02 | 0.02 | 84 | 1013.4 |
| 20260507030005 | 64 | 270 | 5.0 | 16.0 | 0.00 | 0.01 | 0.01 | 83 | 1013.5 |
| 20260507024504 | 64 | 277 | 7.0 | 16.0 | 0.00 | 0.01 | 0.01 | 83 | 1013.5 |
| 20260507023002 | 64 | 216 | 4.0 | 12.0 | 0.00 | 0.01 | 0.01 | 85 | 1013.6 |
| 20260507021602 | 64 | 290 | 4.0 | 13.0 | 0.00 | 0.01 | 0.01 | 84 | 1014.0 |
| 20260507020100 | 65 | 236 | 7.0 | 17.0 | 0.00 | 0.01 | 0.01 | 81 | 1014.1 |
| 20260507014603 | 66 | 255 | 7.0 | 12.0 | 0.00 | 0.01 | 0.01 | 79 | 1014.3 |
| 20260507013054 | 67 | 256 | 7.0 | 14.0 | 0.00 | 0.01 | 0.01 | 76 | 1014.6 |
| 20260507011553 | 67 | 306 | 6.0 | 16.0 | 0.00 | 0.01 | 0.01 | 74 | 1014.6 |
| 20260507010051 | 67 | 241 | 5.0 | 14.0 | 0.00 | 0.01 | 0.01 | 72 | 1014.9 |
| 20260507004548 | 67 | 298 | 5.0 | 13.0 | 0.00 | 0.01 | 0.01 | 71 | 1015.4 |
| 20260507003050 | 68 | 238 | 4.0 | 9.0 | 0.00 | 0.01 | 0.01 | 71 | 1016.0 |
| 20260507001543 | 68 | 328 | 4.0 | 9.0 | 0.00 | 0.01 | 0.01 | 71 | 1016.2 |
| 20260507000140 | 67 | 312 | 3.0 | 9.0 | 0.00 | 0.01 | 0.01 | 73 | 1016.6 |
| 20260506234538 | 67 | 320 | 4.0 | 10.0 | 0.00 | 0.01 | 0.01 | 72 | 1016.8 |
| 20260506233038 | 65 | 245 | 3.0 | 9.0 | 0.00 | 0.01 | 0.01 | 77 | 1016.9 |
| 20260506231529 | 63 | 248 | 2.0 | 7.0 | 0.00 | 0.01 | 0.01 | 83 | 1017.1 |
| 20260506230026 | 61 | 249 | 0.0 | 5.0 | 0.00 | 0.01 | 0.01 | 86 | 1017.3 |
| 20260506224521 | 60 | 282 | 0.0 | 2.0 | 0.00 | 0.01 | 0.01 | 88 | 1017.3 |
| 20260506223017 | 59 | 283 | 0.0 | 1.0 | 0.00 | 0.01 | 0.01 | 89 | 1017.5 |
| 20260506221513 | 58 | 267 | 0.0 | 1.0 | 0.00 | 0.01 | 0.01 | 91 | 1017.8 |
| 20260506220019 | 57 | 254 | 0.0 | 1.0 | 0.00 | 0.01 | 0.01 | 91 | 1017.8 |
| 20260506214509 | 56 | 252 | 0.0 | 2.0 | 0.01 | 0.01 | 0.01 | 92 | 1018.2 |
| 20260506213008 | 55 | 256 | 0.0 | 2.0 | 0.01 | 0.01 | 0.01 | 92 | 1018.3 |
| 20260506211508 | 55 | 261 | 0.0 | 2.0 | 0.01 | 0.01 | 0.01 | 91 | 1018.6 |
| 20260506210009 | 55 | 287 | 0.0 | 1.0 | 0.01 | 0.01 | 0.01 | 91 | 1018.9 |
| 20260506204504 | 56 | 252 | 0.0 | 1.0 | 0.00 | 0.00 | 0.00 | 91 | 1018.8 |
| 20260506203004 | 56 | 248 | 0.0 | 1.0 | 0.00 | 0.00 | 0.00 | 92 | 1019.0 |
| 20260506201600 | 55 | 258 | 0.0 | 2.0 | 0.00 | 0.00 | 0.00 | 91 | 1019.0 |
| 20260506200059 | 55 | 252 | 1.0 | 4.0 | 0.00 | 0.00 | 0.00 | 91 | 1019.1 |
| 20260506194633 | 55 | 255 | 0.0 | 2.0 | 0.00 | 0.00 | 0.00 | 91 | 1018.9 |
| 20260506193106 | 55 | 247 | 1.0 | 4.0 | 0.00 | 0.00 | 0.00 | 90 | 1019.0 |
| 20260506191556 | 56 | 258 | 0.0 | 2.0 | 0.00 | 0.00 | 0.00 | 90 | 1019.1 |
| 20260506190100 | 55 | 239 | 0.0 | 0.0 | 0.00 | 0.00 | 0.00 | 89 | 1019.1 |
| 20260506184554 | 55 | 255 | 0.0 | 2.0 | 0.00 | 0.00 | 0.00 | 89 | 1019.3 |
| 20260506183053 | 55 | 265 | 0.0 | 1.0 | 0.00 | 0.00 | 0.00 | 88 | 1019.3 |
| 20260506181552 | 56 | 265 | 0.0 | 1.0 | 0.00 | 0.00 | 0.00 | 89 | 1019.3 |
| 20260506174549 | 55 | 266 | 1.0 | 3.0 | 0.00 | 0.00 | 0.00 | 89 | 1019.6 |
| 20260506173049 | 54 | 247 | 0.0 | 2.0 | 0.00 | 0.00 | 0.00 | 88 | 1019.8 |
| 20260506171547 | 54 | 261 | 0.0 | 1.0 | 0.00 | 0.00 | 0.00 | 86 | 1020.0 |
| 20260506170055 | 54 | 260 | 0.0 | 0.0 | 0.00 | 0.00 | 0.00 | 85 | 1020.1 |
| 20260506164541 | 55 | 257 | 0.0 | 1.0 | 0.00 | 0.00 | 0.00 | 84 | 1020.3 |
| 20260506163057 | 56 | 299 | 0.0 | 1.0 | 0.00 | 0.00 | 0.00 | 83 | 1020.5 |
| 20260506161536 | 56 | 312 | 0.0 | 0.0 | 0.00 | 0.00 | 0.00 | 82 | 1020.7 |
| 20260506160035 | 56 | 312 | 0.0 | 0.0 | 0.00 | 0.00 | 0.00 | 80 | 1020.9 |
| 20260506154532 | 55 | 312 | 0.0 | 0.0 | 0.00 | 0.00 | 0.00 | 82 | 1021.1 |
| 20260506153030 | 55 | 312 | 0.0 | 1.0 | 0.00 | 0.00 | 0.00 | 82 | 1021.3 |
| 20260506151526 | 54 | 264 | 0.0 | 5.0 | 0.00 | 0.00 | 0.00 | 86 | 1021.5 |
| 20260506150027 | 53 | 250 | 0.0 | 0.0 | 0.00 | 0.00 | 0.00 | 84 | 1021.6 |